This demonstration page uses our WeatherBlox Daily Observations layout. Learn more.

Left ArrowRight Arrow

Hourly Observations for July 21, 2015

Temp ( °F °C ) Dew Point ( °F °C ) Humidity (%) Winds ( mph kmh ) Pressure ( in mb ) Visibility ( mi km ) Precip ( " mm )
12:53 am 00:53 Mostly Clear 83 28.3 59 15 44 44 S 7 11 29.80 1009 10 16 0.00 0.00
1:41 am 01:41 Mostly Cloudy with Nearby Thunderstorms 82 27.8 62 16.7 51 51 S 6 9 29.77 1008 10 16 0.00 0.00
1:53 am 01:53 Mostly Cloudy 82 27.8 63 17.2 53 53 S 5 7 29.80 1009 10 16 0.00 0.00
2:53 am 02:53 Mostly Cloudy 76 24.4 66 18.9 72 72 NNE 14 22 29.83 1010 10 16 0.00 0.03
3:22 am 03:22 Mostly Cloudy with Nearby Thunderstorms 73 23 66 19 78 78 NE 14 22 29.85 1011 10 16 0.00 0.00
3:44 am 03:44 Partly Cloudy 73 23 66 19 78 78 NE 12 19 29.83 1010 10 16 0.00 0.00
3:53 am 03:53 Mostly Clear 74 23.3 66 18.9 76 76 NNE 9 15 29.82 1010 10 16 0.00 0.00
4:53 am 04:53 Clear 73 22.8 66 18.9 79 79 N 9 15 29.82 1010 10 16 0.00 0.00
5:53 am 05:53 Clear 72 22.2 66 18.9 82 82 N 9 15 29.80 1009 10 16 0.00 0.00
6:53 am 06:53 Clear 71 21.7 66 18.9 84 84 N 5 7 29.81 1010 10 16 0.00 0.00
7:53 am 07:53 Sunny 73 22.8 66 18.9 79 79 NNW 6 9 29.83 1010 10 16 0.00 0.00
8:53 am 08:53 Sunny 76 24.4 66 18.9 72 72 ENE 3 6 29.85 1011 10 16 0.00 0.00
9:53 am 09:53 Sunny 82 27.8 65 18.3 56 56 NNE 6 9 29.84 1011 10 16 0.00 0.00
10:53 am 10:53 Sunny 86 30 63 17.2 46 46 VRB 3 6 29.83 1010 10 16 0.00 0.00
11:53 am 11:53 Sunny 90 32.2 62 16.7 39 39 N 7 11 29.82 1010 10 16 0.00 0.00
12:53 pm 12:53 Sunny 93 33.9 62 16.7 36 36 NNE 8 13 29.81 1010 10 16 0.00 0.00
1:53 pm 13:53 Sunny 95 35 62 16.7 34 34 VRB 3 6 29.79 1009 10 16 0.00 0.00
2:53 pm 14:53 Sunny 95 35 61 16.1 32 32 VRB 6 9 29.76 1008 10 16 0.00 0.00
3:53 pm 15:53 Partly Cloudy 97 36.1 61 16.1 30 30 VRB 5 7 29.72 1007 10 16 0.00 0.00
4:53 pm 16:53 Mostly Cloudy with Light Rain 97 36.1 60 15.6 29 29 undefined N/A 29.70 1006 10 16 0.00 0.03
5:28 pm 17:28 Cloudy with Nearby Thunderstorms 97 36 57 14 27 27 SE 6 9 29.62 1003 10 16 0.00 0.00
5:53 pm 17:53 Cloudy with Nearby Thunderstorms 97 36.1 57 13.9 26 26 SSW 9 15 29.68 1005 10 16 0.00 0.03
6:15 pm 18:15 Cloudy with Thunderstorms 89 31.7 62 16.7 41 41 SSW 12 19 29.65 1004 10 16 0.00 0.00
6:53 pm 18:53 Cloudy with Nearby Thunderstorms 87 30.6 64 17.8 46 46 NE 9 15 29.73 1007 10 16 0.00 0.00
7:09 pm 19:09 Cloudy 87 30.6 64 17.8 46 46 E 12 19 29.65 1004 10 16 0.00 0.00
7:26 pm 19:26 Cloudy with Thunderstorms 84 29 64 18 51 51 ENE 13 20 29.71 1006 10 16 0.00 0.00
7:41 pm 19:41 Mostly Cloudy with Nearby Thunderstorms 80 26.7 68 20 67 67 E 18 30 29.68 1005 10 16 0.00 0.00
7:53 pm 19:53 Partly Cloudy with Nearby Thunderstorms 80 26.7 68 20 67 67 ENE 15 24 29.76 1008 10 16 0.00 0.00
8:03 pm 20:03 Partly Cloudy 79 26 70 21 74 74 ENE 15 24 29.74 1007 10 16 0.00 0.00
8:53 pm 20:53 Mostly Cloudy 79 26.1 66 18.9 65 65 E 9 15 29.78 1009 10 16 0.00 0.00
9:32 pm 21:32 Cloudy with Nearby Thunderstorms 81 27 66 19 62 62 undefined N/A 29.77 1008 10 16 0.00 0.00
9:53 pm 21:53 Mostly Cloudy with Nearby Thunderstorms 80 26.7 66 18.9 62 62 W 8 13 29.82 1010 10 16 0.00 0.00
10:05 pm 22:05 Mostly Clear 80 26.7 65 18.3 60 60 NW 5 7 29.80 1009 10 16 0.00 0.00
10:53 pm 22:53 Mostly Clear 78 25.6 69 20.6 74 74 E 5 7 29.80 1009 10 16 0.00 0.03
11:53 pm 23:53 Clear 80 26.7 65 18.3 60 60 SW 12 19 29.78 1008 10 16 0.00 0.00

Powered by AerisWeather